Weather History for Black River Falls, WI

Change the Weather History Date:

Wednesday, November 21, 2012

  Actual Average (KLSE) Record (KLSE)
Temperature  
Mean Temperature 47 °F 33 °F  
Max Temperature 62 °F 40 °F 72 °F (1990)
Min Temperature 32 °F 25 °F -9 °F (1880)
Degree Days  
Heating Degree Days 18 32  
Month to date heating degree days 557  
Since 1 July heating degree days 1185  
Cooling Degree Days 0 0  
Month to date cooling degree days 0  
Year to date cooling degree days 782  
Moisture  
Dew Point 38 °F    
Average Humidity 74    
Maximum Humidity 100    
Minimum Humidity 42    
Precipitation  
Precipitation 0.00 in 0.07 in 1.16 in (1920)
Month to date precipitation 1.42  
Year to date precipitation 31.11  
Snow  
Snow 0.00 in 0.20 in 2.20 in (1961)
Month to date snowfall 2.0  
Since 1 July snowfall 2.2  
Snow Depth -    
Sea Level Pressure  
Sea Level Pressure 30.00 in    
Wind  
Wind Speed 3 mph (SSW)    
Max Wind Speed 14 mph    
Max Gust Speed 21 mph    
Visibility 6 miles    
Events Fog    
T = Trace of Precipitation, MM = Missing Value Source: NWS Daily Summary

Daily Weather History Graph

Daily Weather History Graph

Search for Another Location

Airport:

Trip Planner

Search our weather history database for the weather conditions in past years. The results will help you decide how hot, cold, wet, or windy it might be!

Date:

Astronomy

Nov. 21, 2012 Rise Set
Actual Time 7:07 AM CST 4:30 PM CST
Civil Twilight 6:35 AM CST 5:02 PM CST
Nautical Twilight 6:00 AM CST 5:38 PM CST
Astronomical Twilight 5:25 AM CST 6:12 PM CST
Moon 1:00 PM CST (11/21) 12:13 AM CST (11/21)
Length of Visible Light 10h 27m
Length of Day
9h 23m
First Quarter, 62% of the Moon is Illuminated
Nov 21
First Quarter
Nov 28
Full
Dec 6
Last Quarter
Dec 13
New
Dec 19
First Quarter

Hourly Weather History & Observations

Time (CST) Temp. Windchill Dew Point Humidity Pressure Visibility Wind Dir Wind Speed Gust Speed Precip Events Conditions
12:15 AM 32.0 °F - 32.0 °F 100% 30.13 in 0.2 mi Calm Calm - N/A Fog Fog
12:35 AM 32.0 °F - 32.0 °F 100% 30.12 in 0.2 mi Calm Calm - N/A Fog Fog
12:55 AM 32.0 °F - 32.0 °F 100% 30.12 in 0.2 mi Calm Calm - N/A Fog Fog
1:15 AM 32.0 °F - 32.0 °F 100% 30.12 in 0.2 mi Calm Calm - N/A Fog Fog
1:35 AM 32.0 °F 28.7 °F 32.0 °F 100% 30.13 in 0.2 mi West 3.5 mph - N/A Fog Light Freezing Fog
1:55 AM 32.0 °F - 32.0 °F 100% 30.13 in 0.2 mi Calm Calm - N/A Fog Light Freezing Fog
2:15 AM 32.0 °F - 32.0 °F 100% 30.12 in 0.2 mi Calm Calm - N/A Fog Light Freezing Fog
2:35 AM 32.0 °F - 32.0 °F 100% 30.12 in 0.2 mi Calm Calm - N/A Fog Light Freezing Fog
2:55 AM 32.0 °F - 32.0 °F 100% 30.12 in 0.2 mi Calm Calm - N/A Fog Fog
3:15 AM 32.0 °F - 32.0 °F 100% 30.12 in 0.2 mi Calm Calm - N/A Fog Fog
3:35 AM 32.0 °F - 32.0 °F 100% 30.12 in 0.2 mi Calm Calm - N/A Fog Fog
3:55 AM 32.0 °F - 32.0 °F 100% 30.12 in 0.2 mi Calm Calm - N/A Fog Fog
4:15 AM 32.0 °F - 32.0 °F 100% 30.12 in 0.2 mi Calm Calm - N/A Fog Fog
4:35 AM 32.0 °F - 32.0 °F 100% 30.11 in 0.2 mi Calm Calm - N/A Fog Fog
4:55 AM 32.0 °F - 32.0 °F 100% 30.10 in 0.2 mi Calm Calm - N/A Fog Fog
5:15 AM 32.0 °F - 32.0 °F 100% 30.09 in 0.2 mi Calm Calm - N/A Fog Fog
5:35 AM 32.0 °F - 32.0 °F 100% 30.08 in 0.2 mi Calm Calm - N/A Fog Fog
5:55 AM 33.8 °F 30.8 °F 33.8 °F 100% 30.08 in 0.2 mi SSE 3.5 mph - N/A Fog Fog
6:15 AM 33.8 °F - 33.8 °F 100% 30.08 in 0.2 mi Calm Calm - N/A Fog Fog
6:35 AM 33.8 °F - 33.8 °F 100% 30.07 in 0.2 mi Calm Calm - N/A Fog Fog
6:55 AM 33.8 °F - 33.8 °F 100% 30.07 in 0.2 mi Calm Calm - N/A Fog Fog
7:15 AM 33.8 °F - 33.8 °F 100% 30.07 in 0.2 mi Calm Calm - N/A Fog Fog
7:35 AM 33.8 °F 30.8 °F 33.8 °F 100% 30.06 in 0.2 mi SSE 3.5 mph - N/A Fog Fog
8:15 AM 35.6 °F - 35.6 °F 100% 30.05 in 0.8 mi Calm Calm - N/A   Mist
8:35 AM 37.4 °F - 37.4 °F 100% 30.05 in 1.2 mi Calm Calm - N/A   Mist
8:55 AM 39.2 °F - 39.2 °F 100% 30.05 in 2.0 mi Calm Calm - N/A   Clear
9:15 AM 42.8 °F - 42.8 °F 100% 30.04 in 4.0 mi Calm Calm - N/A   Clear
9:35 AM 44.6 °F - 44.6 °F 100% 30.04 in 5.0 mi Calm Calm - N/A   Clear
9:55 AM 48.2 °F - 42.8 °F 82% 30.04 in 7.0 mi SSW 4.6 mph - N/A   Clear
10:15 AM 50.0 °F - 42.8 °F 76% 30.04 in 10.0 mi SW 5.8 mph - N/A   Clear
10:35 AM 51.8 °F - 41.0 °F 67% 30.03 in 10.0 mi SSW 5.8 mph - N/A   Clear
10:55 AM 53.6 °F - 41.0 °F 62% 30.02 in 10.0 mi SW 4.6 mph - N/A   Clear
11:15 AM 55.4 °F - 39.2 °F 54% 30.01 in 10.0 mi SW 5.8 mph - N/A   Clear
11:35 AM 57.2 °F - 37.4 °F 48% 29.99 in 10.0 mi SSW 10.4 mph 18.4 mph N/A   Clear
11:55 AM 59.0 °F - 37.4 °F 45% 29.98 in 10.0 mi WSW 6.9 mph 20.7 mph N/A   Clear
12:15 PM 59.0 °F - 37.4 °F 45% 29.98 in 10.0 mi SSW 6.9 mph - N/A   Clear
12:35 PM 60.8 °F - 37.4 °F 42% 29.97 in 10.0 mi SSW 9.2 mph - N/A   Clear
12:55 PM 60.8 °F - 37.4 °F 42% 29.96 in 10.0 mi SW 11.5 mph 16.1 mph N/A   Clear
1:15 PM 60.8 °F - 39.2 °F 45% 29.95 in 10.0 mi SSW 8.1 mph - N/A   Clear
1:35 PM 60.8 °F - 39.2 °F 45% 29.94 in 10.0 mi SW 13.8 mph 19.6 mph N/A   Clear
1:55 PM 62.6 °F - 39.2 °F 42% 29.93 in 10.0 mi SW 11.5 mph 18.4 mph N/A   Clear
2:35 PM 62.6 °F - 39.2 °F 42% 29.93 in 10.0 mi SSW 8.1 mph 16.1 mph N/A   Clear
2:55 PM 62.6 °F - 39.2 °F 42% 29.92 in 10.0 mi SSW 5.8 mph - N/A   Clear
3:15 PM 62.6 °F - 39.2 °F 42% 29.93 in 10.0 mi SW 4.6 mph - N/A   Clear
3:55 PM 60.8 °F - 41.0 °F 48% 29.92 in 10.0 mi SSW 5.8 mph - N/A   Clear
4:15 PM 60.8 °F - 41.0 °F 48% 29.92 in 10.0 mi SSW 5.8 mph - N/A   Clear
4:35 PM 59.0 °F - 41.0 °F 51% 29.91 in 10.0 mi South 5.8 mph - N/A   Clear
4:55 PM 57.2 °F - 41.0 °F 55% 29.91 in 10.0 mi South 5.8 mph - N/A   Clear
5:15 PM 55.4 °F - 41.0 °F 58% 29.92 in 10.0 mi SSW 3.5 mph - N/A   Clear
5:35 PM 53.6 °F - 41.0 °F 62% 29.91 in 10.0 mi South 3.5 mph - N/A   Clear
5:55 PM 53.6 °F - 41.0 °F 62% 29.91 in 10.0 mi South 3.5 mph - N/A   Clear
6:15 PM 53.6 °F - 41.0 °F 62% 29.91 in 10.0 mi South 5.8 mph - N/A   Clear
6:35 PM 53.6 °F - 42.8 °F 67% 29.91 in 10.0 mi South 3.5 mph - N/A   Clear
6:55 PM 55.4 °F - 42.8 °F 63% 29.91 in 10.0 mi SSW 5.8 mph - N/A   Clear
7:15 PM 55.4 °F - 42.8 °F 63% 29.90 in 10.0 mi SSW 8.1 mph - N/A   Clear
7:55 PM 55.4 °F - 41.0 °F 58% 29.90 in 10.0 mi South 5.8 mph - N/A   Clear
8:15 PM 55.4 °F - 41.0 °F 58% 29.90 in 10.0 mi South 4.6 mph - N/A   Clear
8:35 PM 53.6 °F - 41.0 °F 62% 29.89 in 10.0 mi South 8.1 mph - N/A   Clear
8:55 PM 55.4 °F - 41.0 °F 58% 29.89 in 10.0 mi South 9.2 mph - N/A   Clear
9:15 PM 55.4 °F - 41.0 °F 58% 29.89 in 10.0 mi SSW 8.1 mph - N/A   Clear
9:35 PM 53.6 °F - 41.0 °F 62% 29.90 in 10.0 mi SSW 8.1 mph - N/A   Clear
9:55 PM 53.6 °F - 41.0 °F 62% 29.90 in 10.0 mi South 5.8 mph - N/A   Clear
10:15 PM 51.8 °F - 41.0 °F 67% 29.89 in 10.0 mi South 5.8 mph - N/A   Clear
10:35 PM 53.6 °F - 41.0 °F 62% 29.88 in 10.0 mi South 6.9 mph - N/A   Clear
10:55 PM 53.6 °F - 41.0 °F 62% 29.87 in 10.0 mi South 6.9 mph - N/A   Clear
11:15 PM 53.6 °F - 39.2 °F 58% 29.87 in 10.0 mi South 6.9 mph - N/A   Clear
11:35 PM 51.8 °F - 39.2 °F 62% 29.86 in 10.0 mi South 6.9 mph - N/A   Clear
11:55 PM 51.8 °F - 39.2 °F 62% 29.86 in 10.0 mi South 6.9 mph - N/A   Clear